Home   Weather   Langevåg   Past weeks

Flag for Norway Past Weather in Langevåg, Norway — Yesterday and Last 2 Weeks

Now
63 °F

Passing clouds.


Feels Like: 63 °F
Forecast: 62 / 69 °F
Wind: 17 mph from Southwest

Location: Alesund / Vigra

Current Time: Sep 25, 2016 at 12:49:55 AM

Latest Report: Sep 24, 2016 at 11:50 PM


Visibility: N/A

Pressure: 29.74 "Hg

Humidity: 64%

Dew Point: 50 °F

Location of LangevågLocation

Past Weather in Langevåg — Graph

°F

Langevåg Temperature Yesterday

Maximum temperature yesterday: 64 °F (at 4:20 PM)
Minimum temperature yesterday: 52 °F (at 5:20 AM)
Average temperature yesterday: 58 °F

High & Low Weather Summary for the Past Weeks

 TemperatureHumidityPressure
High75 °F (Sep 13, 3:50 PM)100% (Sep 14, 2:20 AM)30.18 "Hg (Sep 14, 2:20 AM)
Low52 °F (Sep 11, 7:50 AM)41% (Sep 12, 2:50 AM)29.56 "Hg (Sep 10, 6:20 AM)
Average59 °F82%30.00 "Hg
* Reported Sep 9 11:20 PM — Sep 24 11:20 PM, Langevåg, Weather by CustomWeather, © 2016

Note: Actual official high and low records may vary slightly from our data, if they occured in-between our weather recording intervals... More about our weather records

Advertising

Langevåg Weather History for the Previous 24 Hours

Scroll right to see more
 ConditionsComfort  
Time TempWeatherWind HumidityBarometerVisibility
11:20 PM
Sat, Sep 24
63 °FOvercast.14 mph64%29.74 "HgN/A
10:50 PM63 °FPassing clouds.13 mph59%29.77 "HgN/A
10:20 PM64 °FPassing clouds.13 mph56%29.77 "HgN/A
9:50 PM64 °FPassing clouds.12 mph56%29.77 "HgN/A
9:20 PM63 °FPassing clouds.10 mph59%29.77 "HgN/A
8:50 PM63 °FPassing clouds.15 mph56%29.77 "HgN/A
8:20 PM63 °FPassing clouds.15 mph56%29.77 "HgN/A
7:50 PM63 °FPassing clouds.10 mph59%29.77 "HgN/A
7:20 PM63 °FBroken clouds.13 mph56%29.77 "HgN/A
6:50 PM63 °FBroken clouds.13 mph56%29.77 "HgN/A
6:20 PM63 °FBroken clouds.10 mph59%29.77 "HgN/A
5:50 PM63 °FBroken clouds.13 mph56%29.77 "HgN/A
5:20 PM63 °FPartly sunny.13 mph56%29.77 "HgN/A
4:50 PM63 °FPartly sunny.10 mph59%29.77 "HgN/A
4:20 PM64 °FPartly sunny.14 mph52%29.77 "HgN/A
3:50 PM63 °FBroken clouds.10 mph59%29.77 "HgN/A
3:20 PM63 °FBroken clouds.12 mph59%29.80 "HgN/A
2:50 PM61 °FBroken clouds.12 mph63%29.80 "HgN/A
2:20 PM61 °FBroken clouds.8 mph63%29.80 "HgN/A
1:50 PM59 °FPartly sunny.6 mph68%29.83 "HgN/A
1:20 PM55 °FPartly sunny.9 mph82%29.83 "HgN/A
12:50 PM55 °FPartly sunny.14 mph72%29.83 "HgN/A
12:20 PM55 °FPartly sunny.15 mph72%29.86 "HgN/A
11:50 AM54 °FPartly sunny.15 mph77%29.86 "HgN/A
11:20 AM54 °FLight rain. Partly sunny.16 mph77%29.86 "HgN/A
10:50 AM54 °FLight rain. Partly sunny.13 mph77%29.86 "HgN/A
10:20 AM55 °FLight rain. Partly sunny.16 mph67%29.86 "HgN/A
9:50 AM55 °FLight rain. Partly sunny.15 mph63%29.89 "HgN/A
9:20 AM57 °FPartly sunny.16 mph55%29.89 "HgN/A
8:50 AM55 °FPartly sunny.15 mph59%29.89 "HgN/A
8:20 AM55 °FPartly sunny.15 mph59%29.89 "HgN/A
7:50 AM55 °FPartly sunny.15 mph59%29.89 "HgN/A
7:20 AM55 °FPassing clouds.13 mph59%29.92 "HgN/A
6:50 AM55 °FPassing clouds.13 mph59%29.92 "HgN/A
6:20 AM55 °FClear.12 mph63%29.95 "Hg10 mi
5:50 AM54 °FClear.12 mph67%29.95 "Hg10 mi
5:20 AM52 °FClear.9 mph72%29.95 "Hg10 mi
4:50 AM54 °FCool.8 mph63%29.95 "HgN/A
4:20 AM54 °FCool.10 mph67%29.95 "HgN/A
3:50 AM55 °FPassing clouds.13 mph59%29.98 "HgN/A
3:20 AM54 °FMostly cloudy.10 mph67%29.98 "HgN/A
2:50 AM55 °FPassing clouds.8 mph63%29.98 "HgN/A
2:20 AM54 °FOvercast.8 mph67%29.98 "HgN/A
12:20 AM55 °FPassing clouds.7 mph67%29.98 "HgN/A
Weather by CustomWeather, © 2016

See weather overviewHow to use our weather pages